This demonstration page uses our WeatherBlox Daily Observations layout. Learn more.

Left ArrowRight Arrow

47.50024, -111.30081

Hourly Observations for December 4, 2022

Temp ( °F °C ) Dew Point ( °F °C ) Humidity (%) Winds ( mph kmh ) Pressure ( in mb ) Visibility ( mi km ) Precip ( " mm )
12:53 am 00:53 Clear 26 -3.3 10 -12.2 50 50 SSW 20 31 30.17 1022 10 16 0.00 0.00
1:53 am 01:53 Clear 26 -3.3 10 -12.2 50 50 SSW 13 20 30.17 1022 10 16 0.00 0.00
2:53 am 02:53 Clear 28 -2.2 10 -12.2 46 46 SW 18 30 30.14 1021 10 16 0.00 0.00
3:53 am 03:53 Clear 27 -2.8 9 -12.8 46 46 SSW 15 24 30.12 1020 10 16 0.00 0.00
4:53 am 04:53 Clear 27 -2.8 10 -12.2 48 48 SSW 17 28 30.10 1019 10 16 0.00 0.00
5:53 am 05:53 Clear 29 -1.7 10 -12.2 44 44 SW 20 31 30.08 1019 10 16 0.00 0.00
6:53 am 06:53 Clear 27 -2.8 11 -11.7 50 50 SSW 23 37 30.08 1019 10 16 0.00 0.00
7:53 am 07:53 Clear 28 -2.2 11 -11.7 48 48 SW 20 31 30.07 1018 10 16 0.00 0.00
8:53 am 08:53 Sunny 27 -2.8 11 -11.7 50 50 SSW 20 31 30.07 1018 10 16 0.00 0.00
9:53 am 09:53 Sunny 31 -0.6 13 -10.6 47 47 SW 14 22 30.08 1019 10 16 0.00 0.00
10:17 am 10:17 Sunny 30 -1.1 15 -9.4 53 53 NNW 14 22 30.10 1019 10 16 0.00 0.00
10:53 am 10:53 Sunny 29 -1.7 14 -10 53 53 W 5 7 30.11 1020 10 16 0.00 0.00
11:53 am 11:53 Sunny 33 0.6 17 -8.3 51 51 WNW 6 9 30.11 1020 10 16 0.00 0.00
12:53 pm 12:53 Sunny 33 0.6 18 -7.8 53 53 NNW 12 19 30.11 1020 10 16 0.00 0.00
1:53 pm 13:53 Sunny 31 -0.6 20 -6.7 63 63 NNW 5 7 30.09 1019 10 16 0.00 0.00
2:53 pm 14:53 Sunny 34 1.1 20 -6.7 56 56 undefined N/A 30.06 1018 10 16 0.00 0.00
3:53 pm 15:53 Mostly Sunny 31 -0.6 19 -7.2 61 61 Calm 30.06 1018 10 16 0.00 0.00
4:53 pm 16:53 Clear 28 -2.2 18 -7.8 65 65 Calm 30.06 1018 10 16 0.00 0.00
5:53 pm 17:53 Cloudy 23 -5 17 -8.3 78 78 Calm 30.06 1018 10 16 0.00 0.00
6:53 pm 18:53 Mostly Cloudy 25 -3.9 18 -7.8 74 74 ENE 3 6 30.07 1018 10 16 0.00 0.00
7:53 pm 19:53 Mostly Cloudy 25 -3.9 19 -7.2 78 78 NE 6 9 30.06 1018 10 16 0.00 0.00
8:53 pm 20:53 Mostly Cloudy 25 -3.9 18 -7.8 74 74 ENE 7 11 30.06 1018 10 16 0.00 0.00
9:53 pm 21:53 Cloudy 24 -4.4 19 -7.2 81 81 E 3 6 30.05 1018 10 16 0.00 0.00
10:44 pm 22:44 Cloudy with Light Snow 24 -4.4 20 -6.7 84 84 Calm 30.10 1019 3 4 0.01 0.13
10:53 pm 22:53 Cloudy with Light Snow 24 -4.4 20 -6.7 84 84 E 6 9 30.06 1018 1 2 0.01 0.13
11:53 pm 23:53 Cloudy with Light Snow 22 -5.6 21 -6.1 96 96 ENE 8 13 30.05 1018 1 2 0.02 0.51

Powered by AerisWeather